| time (UTC) | temp F | wind direction | speed MPH | gust MPH | rain 1hr in | rain 24hr in | rain mn in | humidity % | barometer mb |
| 20260505223514 | 57 | 343 | 4.0 | 4.0 | 0.00 | 0.07 | 0.07 | 51 | 1010.8 |
| 20260505223010 | 57 | 346 | 3.0 | 6.0 | 0.00 | 0.07 | 0.07 | 49 | 1011.1 |
| 20260505222506 | 57 | 37 | 4.0 | 7.0 | 0.00 | 0.07 | 0.07 | 50 | 1011.4 |
| 20260505222002 | 56 | 261 | 2.0 | 8.0 | 0.00 | 0.07 | 0.07 | 51 | 1011.4 |
| 20260505221459 | 56 | 37 | 6.0 | 11.0 | 0.00 | 0.07 | 0.07 | 52 | 1011.2 |
| 20260505220956 | 55 | 272 | 3.0 | 6.0 | 0.00 | 0.07 | 0.07 | 53 | 1011.5 |
| 20260505220453 | 55 | 169 | 0.0 | 5.0 | 0.00 | 0.07 | 0.07 | 54 | 1011.7 |
| 20260505215951 | 55 | 147 | 5.0 | 11.0 | 0.00 | 0.07 | 0.07 | 51 | 1011.5 |
| 20260505215449 | 55 | 110 | 7.0 | 9.0 | 0.00 | 0.07 | 0.07 | 50 | 1011.5 |
| 20260505214946 | 55 | 108 | 8.0 | 10.0 | 0.00 | 0.07 | 0.07 | 52 | 1011.5 |
| 20260505214444 | 54 | 92 | 6.0 | 9.0 | 0.00 | 0.07 | 0.07 | 54 | 1011.5 |
| 20260505213941 | 54 | 105 | 9.0 | 13.0 | 0.00 | 0.07 | 0.07 | 52 | 1011.1 |
| 20260505213439 | 54 | 108 | 8.0 | 10.0 | 0.00 | 0.07 | 0.07 | 53 | 1011.5 |
| 20260505212935 | 54 | 127 | 4.0 | 9.0 | 0.00 | 0.07 | 0.07 | 54 | 1011.1 |
| 20260505212432 | 54 | 101 | 6.0 | 12.0 | 0.00 | 0.07 | 0.07 | 54 | 1011.2 |
| 20260505211928 | 54 | 120 | 7.0 | 10.0 | 0.00 | 0.07 | 0.07 | 52 | 1011.4 |
| 20260505211426 | 54 | 128 | 4.0 | 10.0 | 0.00 | 0.07 | 0.07 | 51 | 1011.4 |
| 20260505210922 | 54 | 142 | 10.0 | 12.0 | 0.00 | 0.07 | 0.07 | 49 | 1011.6 |
| 20260505210420 | 55 | 113 | 3.0 | 7.0 | 0.00 | 0.07 | 0.07 | 51 | 1011.6 |
| 20260505205916 | 55 | 115 | 4.0 | 7.0 | 0.00 | 0.07 | 0.07 | 50 | 1011.5 |
| 20260505205415 | 55 | 186 | 5.0 | 10.0 | 0.00 | 0.07 | 0.07 | 49 | 1011.6 |
| 20260505204911 | 55 | 121 | 3.0 | 9.0 | 0.00 | 0.07 | 0.07 | 52 | 1011.5 |
| 20260505204409 | 55 | 139 | 4.0 | 11.0 | 0.00 | 0.07 | 0.07 | 51 | 1011.8 |
| 20260505203906 | 55 | 137 | 6.0 | 11.0 | 0.00 | 0.07 | 0.07 | 48 | 1011.4 |
| 20260505203402 | 56 | 159 | 10.0 | 13.0 | 0.00 | 0.07 | 0.07 | 45 | 1011.6 |
| 20260505202859 | 56 | 147 | 11.0 | 15.0 | 0.00 | 0.07 | 0.07 | 47 | 1011.5 |
| 20260505202355 | 57 | 127 | 9.0 | 14.0 | 0.00 | 0.07 | 0.07 | 48 | 1011.5 |
| 20260505201852 | 56 | 163 | 11.0 | 13.0 | 0.00 | 0.07 | 0.07 | 47 | 1011.5 |
| 20260505201349 | 56 | 139 | 12.0 | 15.0 | 0.00 | 0.07 | 0.07 | 46 | 1011.6 |
| 20260505200847 | 57 | 120 | 8.0 | 13.0 | 0.00 | 0.07 | 0.07 | 46 | 1011.5 |
| 20260505200344 | 57 | 103 | 5.0 | 13.0 | 0.00 | 0.07 | 0.07 | 48 | 1011.5 |
| 20260505195839 | 56 | 184 | 9.0 | 16.0 | 0.00 | 0.07 | 0.07 | 48 | 1011.5 |
| 20260505195337 | 56 | 153 | 5.0 | 15.0 | 0.00 | 0.07 | 0.07 | 49 | 1011.5 |
| 20260505194834 | 55 | 155 | 16.0 | 18.0 | 0.00 | 0.07 | 0.07 | 50 | 1011.5 |
| 20260505194331 | 54 | 174 | 11.0 | 14.0 | 0.00 | 0.07 | 0.07 | 53 | 1011.5 |
| 20260505193826 | 53 | 131 | 16.0 | 17.0 | 0.00 | 0.07 | 0.07 | 54 | 1011.7 |
| 20260505193324 | 53 | 158 | 11.0 | 16.0 | 0.00 | 0.07 | 0.07 | 54 | 1011.7 |
| 20260505192822 | 53 | 124 | 10.0 | 22.0 | 0.00 | 0.07 | 0.07 | 52 | 1011.8 |
| 20260505192320 | 53 | 141 | 10.0 | 17.0 | 0.00 | 0.07 | 0.07 | 54 | 1011.6 |
| 20260505191817 | 53 | 135 | 9.0 | 17.0 | 0.00 | 0.07 | 0.07 | 54 | 1011.8 |
| 20260505191316 | 53 | 160 | 13.0 | 16.0 | 0.00 | 0.07 | 0.07 | 55 | 1011.5 |
| 20260505190812 | 53 | 129 | 11.0 | 14.0 | 0.00 | 0.07 | 0.07 | 55 | 1011.6 |
| 20260505190307 | 53 | 161 | 10.0 | 21.0 | 0.00 | 0.07 | 0.07 | 54 | 1011.9 |
| 20260505185803 | 53 | 135 | 5.0 | 17.0 | 0.00 | 0.07 | 0.07 | 55 | 1011.8 |
| 20260505185300 | 53 | 158 | 18.0 | 20.0 | 0.00 | 0.07 | 0.07 | 55 | 1011.7 |
| 20260505184756 | 53 | 123 | 16.0 | 26.0 | 0.00 | 0.07 | 0.07 | 54 | 1011.5 |
| 20260505184253 | 53 | 150 | 15.0 | 21.0 | 0.00 | 0.07 | 0.07 | 55 | 1011.7 |
| 20260505183750 | 52 | 141 | 18.0 | 26.0 | 0.00 | 0.07 | 0.07 | 54 | 1011.7 |
| 20260505183248 | 52 | 139 | 10.0 | 20.0 | 0.00 | 0.07 | 0.07 | 55 | 1011.8 |
| 20260505182744 | 52 | 152 | 17.0 | 25.0 | 0.00 | 0.07 | 0.07 | 55 | 1011.7 |
| 20260505182241 | 51 | 125 | 15.0 | 21.0 | 0.00 | 0.07 | 0.07 | 57 | 1011.8 |
| 20260505181737 | 51 | 136 | 9.0 | 25.0 | 0.00 | 0.07 | 0.07 | 57 | 1011.8 |
| 20260505181235 | 51 | 142 | 12.0 | 25.0 | 0.00 | 0.07 | 0.07 | 57 | 1011.9 |
| 20260505180731 | 51 | 133 | 26.0 | 28.0 | 0.00 | 0.07 | 0.07 | 58 | 1011.6 |
| 20260505180228 | 51 | 157 | 13.0 | 24.0 | 0.00 | 0.07 | 0.07 | 58 | 1011.8 |
| 20260505175724 | 51 | 140 | 15.0 | 29.0 | 0.00 | 0.07 | 0.07 | 58 | 1011.7 |
| 20260505175221 | 51 | 123 | 11.0 | 27.0 | 0.00 | 0.07 | 0.07 | 57 | 1011.7 |
| 20260505174717 | 51 | 136 | 15.0 | 21.0 | 0.00 | 0.07 | 0.07 | 59 | 1011.7 |
| 20260505174214 | 51 | 123 | 13.0 | 20.0 | 0.00 | 0.07 | 0.07 | 60 | 1011.8 |
| 20260505173710 | 51 | 155 | 10.0 | 26.0 | 0.00 | 0.07 | 0.07 | 60 | 1011.9 |
| 20260505173207 | 51 | 161 | 9.0 | 23.0 | 0.00 | 0.07 | 0.07 | 60 | 1011.8 |
| 20260505172704 | 51 | 129 | 21.0 | 21.0 | 0.00 | 0.07 | 0.07 | 60 | 1011.8 |
| 20260505172201 | 51 | 159 | 13.0 | 17.0 | 0.00 | 0.07 | 0.07 | 62 | 1011.9 |
| 20260505171700 | 50 | 124 | 18.0 | 25.0 | 0.00 | 0.07 | 0.07 | 62 | 1011.9 |
| 20260505171158 | 50 | 165 | 12.0 | 21.0 | 0.00 | 0.07 | 0.07 | 64 | 1012.0 |
| 20260505170655 | 50 | 142 | 15.0 | 21.0 | 0.00 | 0.07 | 0.07 | 66 | 1011.7 |
| 20260505170152 | 49 | 151 | 17.0 | 18.0 | 0.00 | 0.07 | 0.07 | 67 | 1011.8 |
| 20260505165652 | 49 | 138 | 15.0 | 24.0 | 0.00 | 0.07 | 0.07 | 66 | 1012.0 |
| 20260505165148 | 49 | 146 | 10.0 | 22.0 | 0.00 | 0.07 | 0.07 | 64 | 1011.8 |
| 20260505164643 | 50 | 124 | 8.0 | 21.0 | 0.00 | 0.07 | 0.07 | 64 | 1012.0 |
| 20260505164141 | 50 | 153 | 14.0 | 22.0 | 0.00 | 0.07 | 0.07 | 64 | 1011.8 |
| 20260505163639 | 50 | 138 | 12.0 | 24.0 | 0.00 | 0.07 | 0.07 | 64 | 1011.9 |
| 20260505163137 | 49 | 142 | 20.0 | 24.0 | 0.00 | 0.07 | 0.07 | 65 | 1011.6 |
| 20260505162634 | 49 | 156 | 4.0 | 21.0 | 0.00 | 0.07 | 0.07 | 64 | 1011.9 |
| 20260505162132 | 49 | 141 | 16.0 | 25.0 | 0.00 | 0.07 | 0.07 | 66 | 1011.7 |
| 20260505161629 | 49 | 138 | 12.0 | 25.0 | 0.00 | 0.07 | 0.07 | 64 | 1011.7 |
| 20260505161126 | 49 | 134 | 21.0 | 26.0 | 0.00 | 0.07 | 0.07 | 65 | 1011.8 |
| 20260505160624 | 49 | 146 | 24.0 | 30.0 | 0.00 | 0.07 | 0.07 | 65 | 1011.7 |
| 20260505160121 | 49 | 168 | 10.0 | 27.0 | 0.00 | 0.07 | 0.07 | 65 | 1011.6 |
| 20260505153100 | 50 | 156 | 14.0 | 19.0 | 0.00 | 0.07 | 0.07 | 63 | 1011.1 |
| 20260505152557 | 49 | 124 | 20.0 | 30.0 | 0.00 | 0.07 | 0.07 | 64 | 1011.1 |
| 20260505152053 | 49 | 134 | 9.0 | 25.0 | 0.00 | 0.07 | 0.07 | 66 | 1011.1 |
| 20260505151548 | 49 | 136 | 11.0 | 24.0 | 0.00 | 0.07 | 0.07 | 68 | 1010.9 |
| 20260505151046 | 48 | 140 | 11.0 | 25.0 | 0.00 | 0.07 | 0.07 | 67 | 1011.0 |
| 20260505150542 | 49 | 125 | 20.0 | 33.0 | 0.00 | 0.07 | 0.07 | 66 | 1011.0 |
| 20260505140507 | 48 | 122 | 16.0 | 30.0 | 0.00 | 0.05 | 0.05 | 67 | 1011.1 |
| 20260505124920 | 54 | 126 | 13.0 | 22.0 | 0.00 | 0.00 | 0.00 | 52 | 1010.0 |
| 20260505124417 | 54 | 155 | 8.0 | 17.0 | 0.00 | 0.00 | 0.00 | 50 | 1010.0 |
| 20260505123914 | 54 | 126 | 13.0 | 18.0 | 0.00 | 0.00 | 0.00 | 51 | 1009.4 |
| 20260505123410 | 54 | 118 | 6.0 | 18.0 | 0.00 | 0.00 | 0.00 | 50 | 1009.7 |
| 20260505122906 | 54 | 131 | 8.0 | 16.0 | 0.00 | 0.00 | 0.00 | 51 | 1009.8 |
| 20260505122404 | 54 | 136 | 11.0 | 17.0 | 0.00 | 0.00 | 0.00 | 52 | 1009.6 |
| 20260505121900 | 54 | 156 | 12.0 | 17.0 | 0.00 | 0.00 | 0.00 | 54 | 1009.7 |
| 20260505121357 | 54 | 133 | 11.0 | 19.0 | 0.00 | 0.00 | 0.00 | 52 | 1009.3 |
| 20260505120853 | 54 | 158 | 5.0 | 16.0 | 0.00 | 0.00 | 0.00 | 54 | 1009.6 |
| 20260505120349 | 54 | 122 | 8.0 | 15.0 | 0.00 | 0.00 | 0.00 | 54 | 1009.5 |
| 20260505115848 | 54 | 180 | 6.0 | 14.0 | 0.00 | 0.00 | 0.00 | 55 | 1009.6 |
| 20260505115345 | 54 | 141 | 5.0 | 14.0 | 0.00 | 0.00 | 0.00 | 54 | 1009.6 |
| 20260505114843 | 54 | 164 | 10.0 | 15.0 | 0.00 | 0.00 | 0.00 | 55 | 1009.8 |
| 20260505114339 | 54 | 152 | 8.0 | 19.0 | 0.00 | 0.00 | 0.00 | 56 | 1009.8 |
| 20260505113836 | 54 | 160 | 6.0 | 16.0 | 0.00 | 0.00 | 0.00 | 55 | 1009.8 |
| 20260505113333 | 54 | 111 | 13.0 | 20.0 | 0.00 | 0.00 | 0.00 | 55 | 1009.8 |
| 20260505112828 | 54 | 166 | 9.0 | 16.0 | 0.00 | 0.00 | 0.00 | 56 | 1009.7 |
| 20260505112326 | 54 | 144 | 10.0 | 14.0 | 0.00 | 0.00 | 0.00 | 55 | 1009.7 |
| 20260505111821 | 54 | 143 | 8.0 | 18.0 | 0.00 | 0.00 | 0.00 | 55 | 1009.6 |
| 20260505111317 | 54 | 132 | 12.0 | 14.0 | 0.00 | 0.00 | 0.00 | 57 | 1009.7 |
| 20260505110813 | 54 | 157 | 9.0 | 16.0 | 0.00 | 0.00 | 0.00 | 56 | 1009.5 |
| 20260505110311 | 54 | 158 | 8.0 | 15.0 | 0.00 | 0.00 | 0.00 | 54 | 1009.8 |
| 20260505101745 | 54 | 158 | 12.0 | 17.0 | 0.00 | 0.00 | 0.00 | 57 | 1009.6 |
| 20260505101241 | 55 | 195 | 8.0 | 11.0 | 0.00 | 0.00 | 0.00 | 55 | 1009.7 |
| 20260505100737 | 55 | 176 | 8.0 | 17.0 | 0.00 | 0.00 | 0.00 | 54 | 1009.6 |
| 20260505100234 | 55 | 134 | 9.0 | 15.0 | 0.00 | 0.00 | 0.00 | 51 | 1009.7 |
| 20260505095729 | 55 | 134 | 7.0 | 19.0 | 0.00 | 0.00 | 0.00 | 53 | 1009.7 |
| 20260505095228 | 55 | 144 | 4.0 | 16.0 | 0.00 | 0.00 | 0.00 | 53 | 1009.5 |
| 20260505094723 | 55 | 149 | 13.0 | 19.0 | 0.00 | 0.00 | 0.00 | 55 | 1009.7 |
| 20260505094220 | 55 | 162 | 7.0 | 10.0 | 0.00 | 0.00 | 0.00 | 55 | 1009.8 |
| 20260505093716 | 55 | 161 | 9.0 | 15.0 | 0.00 | 0.00 | 0.00 | 55 | 1010.0 |
| 20260505093214 | 55 | 147 | 4.0 | 13.0 | 0.00 | 0.00 | 0.00 | 54 | 1009.8 |
| 20260505092710 | 55 | 176 | 6.0 | 11.0 | 0.00 | 0.00 | 0.00 | 53 | 1009.8 |
| 20260505092209 | 54 | 157 | 5.0 | 11.0 | 0.00 | 0.00 | 0.00 | 54 | 1009.7 |
| 20260505091706 | 55 | 172 | 3.0 | 10.0 | 0.00 | 0.00 | 0.00 | 57 | 1010.0 |
| 20260505091204 | 56 | 140 | 7.0 | 9.0 | 0.00 | 0.00 | 0.00 | 55 | 1009.8 |
| 20260505090701 | 55 | 140 | 6.0 | 8.0 | 0.00 | 0.00 | 0.00 | 52 | 1010.1 |
| 20260505090159 | 56 | 126 | 4.0 | 12.0 | 0.00 | 0.00 | 0.00 | 52 | 1010.0 |
| 20260505085656 | 56 | 150 | 9.0 | 10.0 | 0.00 | 0.00 | 0.00 | 52 | 1010.0 |
| 20260505085154 | 56 | 155 | 8.0 | 9.0 | 0.00 | 0.00 | 0.00 | 50 | 1010.0 |
| 20260505084651 | 56 | 162 | 7.0 | 10.0 | 0.00 | 0.00 | 0.00 | 50 | 1010.1 |
| 20260505084150 | 56 | 188 | 7.0 | 8.0 | 0.00 | 0.00 | 0.00 | 50 | 1010.0 |
| 20260505083647 | 56 | 196 | 7.0 | 11.0 | 0.00 | 0.00 | 0.00 | 50 | 1010.0 |
| 20260505083143 | 56 | 139 | 6.0 | 8.0 | 0.00 | 0.00 | 0.00 | 51 | 1010.0 |
| 20260505082639 | 56 | 167 | 4.0 | 6.0 | 0.00 | 0.00 | 0.00 | 51 | 1010.0 |
| 20260505082137 | 56 | 199 | 5.0 | 10.0 | 0.00 | 0.00 | 0.00 | 51 | 1010.1 |
| 20260505081632 | 56 | 132 | 3.0 | 13.0 | 0.00 | 0.00 | 0.00 | 51 | 1009.8 |
| 20260505081131 | 56 | 131 | 7.0 | 10.0 | 0.00 | 0.00 | 0.00 | 52 | 1010.0 |
| 20260505080627 | 56 | 128 | 8.0 | 14.0 | 0.00 | 0.00 | 0.00 | 51 | 1009.8 |
| 20260505080123 | 56 | 133 | 10.0 | 17.0 | 0.00 | 0.00 | 0.00 | 51 | 1010.1 |
| 20260505075619 | 56 | 156 | 8.0 | 11.0 | 0.00 | 0.00 | 0.00 | 52 | 1010.1 |
| 20260505075116 | 57 | 161 | 12.0 | 14.0 | 0.00 | 0.00 | 0.00 | 52 | 1009.8 |
| 20260505074613 | 56 | 166 | 6.0 | 21.0 | 0.00 | 0.00 | 0.00 | 51 | 1010.1 |
| 20260505074110 | 56 | 143 | 12.0 | 17.0 | 0.00 | 0.00 | 0.00 | 54 | 1010.0 |
| 20260505073608 | 56 | 144 | 13.0 | 21.0 | 0.00 | 0.00 | 0.00 | 55 | 1009.8 |
| 20260505073106 | 56 | 136 | 18.0 | 21.0 | 0.00 | 0.00 | 0.00 | 54 | 1009.7 |
| 20260505072601 | 55 | 121 | 23.0 | 24.0 | 0.00 | 0.00 | 0.00 | 57 | 1010.2 |
| 20260505072058 | 55 | 136 | 21.0 | 22.0 | 0.00 | 0.00 | 0.00 | 60 | 1009.8 |
| 20260505071553 | 54 | 167 | 12.0 | 24.0 | 0.00 | 0.00 | 0.00 | 63 | 1009.8 |
| 20260505071052 | 54 | 131 | 11.0 | 20.0 | 0.00 | 0.00 | 0.00 | 66 | 1009.7 |
| 20260505070548 | 54 | 145 | 11.0 | 18.0 | 0.00 | 0.00 | 0.00 | 67 | 1010.0 |
| 20260505070044 | 54 | 151 | 20.0 | 20.0 | 0.00 | 0.00 | 0.00 | 66 | 1010.1 |
| 20260505065540 | 54 | 145 | 11.0 | 26.0 | 0.00 | 0.00 | 0.00 | 66 | 1010.3 |
| 20260505065037 | 55 | 141 | 16.0 | 26.0 | 0.00 | 0.00 | 0.00 | 65 | 1010.3 |
| 20260505064534 | 55 | 150 | 17.0 | 22.0 | 0.00 | 0.00 | 0.00 | 66 | 1010.4 |
| 20260505064033 | 55 | 142 | 15.0 | 23.0 | 0.00 | 0.00 | 0.00 | 66 | 1010.4 |
| 20260505063529 | 55 | 164 | 12.0 | 23.0 | 0.00 | 0.00 | 0.00 | 66 | 1010.5 |
| 20260505063025 | 55 | 149 | 12.0 | 20.0 | 0.00 | 0.00 | 0.00 | 67 | 1010.4 |
| 20260505062522 | 55 | 152 | 14.0 | 25.0 | 0.00 | 0.00 | 0.00 | 67 | 1010.8 |
| 20260505062020 | 55 | 135 | 9.0 | 17.0 | 0.00 | 0.00 | 0.00 | 67 | 1010.5 |
| 20260505061517 | 55 | 136 | 14.0 | 20.0 | 0.00 | 0.00 | 0.00 | 67 | 1010.8 |
| 20260505061015 | 55 | 131 | 12.0 | 17.0 | 0.00 | 0.00 | 0.00 | 67 | 1010.5 |
| 20260505060512 | 55 | 117 | 14.0 | 25.0 | 0.00 | 0.00 | 0.00 | 67 | 1010.5 |
| 20260505060008 | 55 | 130 | 12.0 | 17.0 | 0.00 | 0.00 | 0.00 | 68 | 1010.7 |
| 20260505055504 | 55 | 156 | 12.0 | 17.0 | 0.00 | 0.00 | 0.00 | 67 | 1010.7 |
| 20260505055001 | 55 | 151 | 15.0 | 21.0 | 0.00 | 0.00 | 0.00 | 67 | 1010.4 |
| 20260505054458 | 55 | 128 | 12.0 | 19.0 | 0.00 | 0.00 | 0.00 | 66 | 1010.5 |
| 20260505053956 | 55 | 124 | 7.0 | 24.0 | 0.00 | 0.00 | 0.00 | 65 | 1010.5 |
| 20260505053453 | 55 | 158 | 7.0 | 21.0 | 0.00 | 0.00 | 0.00 | 64 | 1010.5 |
| 20260505052949 | 55 | 130 | 11.0 | 23.0 | 0.00 | 0.00 | 0.00 | 63 | 1010.8 |
| 20260505052447 | 55 | 134 | 19.0 | 21.0 | 0.00 | 0.00 | 0.00 | 62 | 1010.8 |
| 20260505051944 | 55 | 143 | 16.0 | 21.0 | 0.00 | 0.00 | 0.00 | 63 | 1010.7 |
| 20260505051440 | 56 | 131 | 17.0 | 25.0 | 0.00 | 0.00 | 0.00 | 63 | 1010.4 |
| 20260505050939 | 56 | 153 | 21.0 | 25.0 | 0.00 | 0.00 | 0.00 | 62 | 1010.7 |
| 20260505050437 | 56 | 136 | 13.0 | 25.0 | 0.00 | 0.00 | 0.00 | 61 | 1010.4 |
| 20260505041405 | 58 | 167 | 10.0 | 27.0 | 0.00 | 0.00 | 0.00 | 61 | 1009.7 |
| 20260505040901 | 58 | 143 | 21.0 | 27.0 | 0.00 | 0.00 | 0.00 | 58 | 1009.4 |
| 20260505040359 | 59 | 159 | 12.0 | 25.0 | 0.00 | 0.00 | 0.00 | 55 | 1009.6 |
| 20260505035855 | 59 | 139 | 26.0 | 35.0 | 0.00 | 0.00 | 0.00 | 53 | 1009.2 |
| 20260505035351 | 60 | 153 | 15.0 | 23.0 | 0.00 | 0.00 | 0.00 | 51 | 1009.0 |
| 20260505034849 | 60 | 148 | 11.0 | 19.0 | 0.00 | 0.00 | 0.00 | 48 | 1009.0 |
| 20260505034345 | 61 | 133 | 19.0 | 25.0 | 0.00 | 0.00 | 0.00 | 47 | 1008.9 |
| 20260505033842 | 61 | 185 | 11.0 | 23.0 | 0.00 | 0.00 | 0.00 | 45 | 1008.8 |
| 20260505033339 | 61 | 189 | 12.0 | 20.0 | 0.00 | 0.00 | 0.00 | 47 | 1008.8 |
| 20260505032837 | 62 | 160 | 11.0 | 18.0 | 0.00 | 0.00 | 0.00 | 47 | 1008.7 |
| 20260505032334 | 62 | 160 | 14.0 | 18.0 | 0.00 | 0.00 | 0.00 | 40 | 1008.6 |
| 20260505031831 | 63 | 154 | 14.0 | 15.0 | 0.00 | 0.00 | 0.00 | 38 | 1008.5 |
| 20260505031327 | 63 | 147 | 10.0 | 16.0 | 0.00 | 0.00 | 0.00 | 37 | 1008.2 |
| 20260505030825 | 63 | 150 | 11.0 | 16.0 | 0.00 | 0.00 | 0.00 | 39 | 1008.2 |
| 20260505030321 | 63 | 162 | 9.0 | 14.0 | 0.00 | 0.00 | 0.00 | 39 | 1008.3 |
| 20260505025816 | 63 | 157 | 6.0 | 11.0 | 0.00 | 0.00 | 0.00 | 39 | 1008.3 |
| 20260505025314 | 63 | 161 | 4.0 | 8.0 | 0.00 | 0.00 | 0.00 | 39 | 1008.1 |
| 20260505024812 | 63 | 169 | 7.0 | 8.0 | 0.00 | 0.00 | 0.00 | 39 | 1008.0 |
| 20260505024310 | 63 | 168 | 4.0 | 7.0 | 0.00 | 0.00 | 0.00 | 39 | 1008.1 |
| 20260505023807 | 63 | 180 | 5.0 | 11.0 | 0.00 | 0.00 | 0.00 | 39 | 1008.2 |
| 20260505023303 | 63 | 147 | 4.0 | 9.0 | 0.00 | 0.00 | 0.00 | 38 | 1008.1 |
| 20260505022801 | 64 | 133 | 3.0 | 6.0 | 0.00 | 0.00 | 0.00 | 38 | 1008.1 |
| 20260505022258 | 64 | 150 | 5.0 | 11.0 | 0.00 | 0.00 | 0.00 | 37 | 1007.9 |
| 20260505021755 | 64 | 151 | 5.0 | 12.0 | 0.00 | 0.00 | 0.00 | 37 | 1008.1 |
| 20260505021251 | 64 | 166 | 9.0 | 13.0 | 0.00 | 0.00 | 0.00 | 38 | 1007.9 |
| 20260505020747 | 64 | 164 | 12.0 | 14.0 | 0.00 | 0.00 | 0.00 | 37 | 1008.0 |
| 20260505020242 | 64 | 154 | 4.0 | 8.0 | 0.00 | 0.00 | 0.00 | 37 | 1008.0 |
| 20260505015740 | 64 | 140 | 5.0 | 9.0 | 0.00 | 0.00 | 0.00 | 37 | 1007.9 |
| 20260505015237 | 64 | 160 | 6.0 | 9.0 | 0.00 | 0.00 | 0.00 | 37 | 1008.0 |
| 20260505014734 | 65 | 177 | 5.0 | 8.0 | 0.00 | 0.00 | 0.00 | 37 | 1007.8 |
| 20260505014231 | 65 | 157 | 6.0 | 10.0 | 0.00 | 0.00 | 0.00 | 37 | 1008.0 |
| 20260505013728 | 65 | 195 | 8.0 | 10.0 | 0.00 | 0.00 | 0.00 | 37 | 1008.0 |
| 20260505013225 | 65 | 165 | 10.0 | 13.0 | 0.00 | 0.00 | 0.00 | 36 | 1008.0 |
| 20260505012723 | 66 | 158 | 11.0 | 14.0 | 0.00 | 0.00 | 0.00 | 36 | 1008.2 |
| 20260505012220 | 65 | 182 | 7.0 | 14.0 | 0.00 | 0.00 | 0.00 | 37 | 1008.0 |
| 20260505011716 | 65 | 147 | 5.0 | 20.0 | 0.00 | 0.00 | 0.00 | 36 | 1008.0 |
| 20260505011214 | 65 | 160 | 13.0 | 20.0 | 0.00 | 0.00 | 0.00 | 36 | 1008.1 |
| 20260505010708 | 66 | 150 | 11.0 | 16.0 | 0.00 | 0.00 | 0.00 | 36 | 1008.2 |
| 20260505010205 | 66 | 142 | 9.0 | 20.0 | 0.00 | 0.00 | 0.00 | 35 | 1008.3 |
| 20260505005701 | 68 | 132 | 12.0 | 20.0 | 0.00 | 0.00 | 0.00 | 33 | 1008.1 |
| 20260505005159 | 68 | 175 | 7.0 | 11.0 | 0.00 | 0.00 | 0.00 | 31 | 1008.3 |
| 20260505004656 | 68 | 141 | 3.0 | 4.0 | 0.00 | 0.00 | 0.00 | 30 | 1008.2 |
| 20260505004152 | 69 | 121 | 0.0 | 2.0 | 0.00 | 0.00 | 0.00 | 30 | 1008.0 |
| 20260505003649 | 70 | 19 | 0.0 | 1.0 | 0.00 | 0.00 | 0.00 | 27 | 1008.1 |
| 20260505003147 | 72 | 204 | 0.0 | 3.0 | 0.00 | 0.00 | 0.00 | 27 | 1008.1 |
| 20260505002643 | 73 | 227 | 3.0 | 4.0 | 0.00 | 0.00 | 0.00 | 28 | 1008.1 |
| 20260505002141 | 72 | 267 | 4.0 | 6.0 | 0.00 | 0.00 | 0.00 | 30 | 1008.2 |
| 20260505001638 | 70 | 18 | 2.0 | 2.0 | 0.00 | 0.00 | 0.00 | 30 | 1008.5 |
| 20260505001136 | 69 | 225 | 3.0 | 4.0 | 0.00 | 0.00 | 0.00 | 30 | 1008.5 |
| 20260505000632 | 68 | 276 | 7.0 | 8.0 | 0.00 | 0.00 | 0.00 | 31 | 1008.5 |
| 20260505000131 | 68 | 289 | 11.0 | 11.0 | 0.00 | 0.00 | 0.00 | 31 | 1008.3 |
| 20260504235626 | 69 | 336 | 11.0 | 13.0 | 0.00 | 0.00 | 0.00 | 30 | 1008.6 |
| 20260504235123 | 70 | 7 | 2.0 | 6.0 | 0.00 | 0.00 | 0.00 | 29 | 1008.2 |
| 20260504234620 | 71 | 345 | 4.0 | 5.0 | 0.00 | 0.00 | 0.00 | 28 | 1008.3 |
| 20260504234118 | 73 | 347 | 7.0 | 11.0 | 0.00 | 0.00 | 0.00 | 27 | 1008.6 |
| 20260504233613 | 73 | 0 | 7.0 | 11.0 | 0.00 | 0.00 | 0.00 | 28 | 1008.5 |
| 20260504233109 | 72 | 351 | 11.0 | 14.0 | 0.00 | 0.00 | 0.00 | 27 | 1008.5 |
| 20260504232607 | 72 | 298 | 8.0 | 16.0 | 0.00 | 0.00 | 0.00 | 26 | 1008.5 |
| 20260504232104 | 72 | 359 | 8.0 | 15.0 | 0.00 | 0.00 | 0.00 | 28 | 1008.3 |
| 20260504231601 | 71 | 352 | 9.0 | 10.0 | 0.00 | 0.00 | 0.00 | 28 | 1008.2 |
| 20260504231056 | 71 | 354 | 8.0 | 11.0 | 0.00 | 0.00 | 0.00 | 28 | 1008.5 |
| 20260504230553 | 72 | 301 | 2.0 | 7.0 | 0.00 | 0.00 | 0.00 | 28 | 1008.3 |
| 20260504230052 | 74 | 326 | 5.0 | 13.0 | 0.00 | 0.00 | 0.00 | 25 | 1008.3 |
| 20260504225549 | 73 | 292 | 2.0 | 9.0 | 0.00 | 0.00 | 0.00 | 27 | 1008.2 |
| 20260504225046 | 73 | 328 | 9.0 | 11.0 | 0.00 | 0.00 | 0.00 | 27 | 1008.6 |
| 20260504224543 | 74 | 335 | 8.0 | 13.0 | 0.00 | 0.00 | 0.00 | 28 | 1008.6 |
| 20260504224040 | 73 | 347 | 7.0 | 8.0 | 0.00 | 0.00 | 0.00 | 26 | 1009.0 |